Weather History for Troy, AL

Change the Weather History Date:

Tuesday, December 4, 2012

  Actual Average Record
Temperature  
Mean Temperature 60 °F 50 °F  
Max Temperature 78 °F 63 °F 78 °F (1998)
Min Temperature 42 °F 38 °F 26 °F (2006)
Degree Days  
Heating Degree Days 5 15  
Month to date heating degree days 24 57  
Since 1 July heating degree days 492 450  
Growing Degree Days 10 (Base 50)    
Moisture  
Dew Point 50 °F    
Average Humidity 70    
Maximum Humidity 100    
Minimum Humidity 39    
Precipitation  
Precipitation 0.00 in 0.18 in 0.38 in (2013)
Month to date precipitation 0.00 0.68  
Year to date precipitation 51.25 50.46  
Snow  
Snow 0.00 in - - ()
Month to date snowfall 0.0  
Since 1 July snowfall 0.0  
Snow Depth 0.00 in    
Sea Level Pressure  
Sea Level Pressure 30.24 in    
Wind  
Wind Speed 2 mph (SSW)    
Max Wind Speed 15 mph    
Max Gust Speed 18 mph    
Visibility 10 miles    
Events      
T = Trace of Precipitation, MM = Missing Value Source: NWS Daily Summary

Daily Weather History Graph

Daily Weather History Graph

Search for Another Location

Airport:

Trip Planner

Search our weather history database for the weather conditions in past years. The results will help you decide how hot, cold, wet, or windy it might be!

Date:

Astronomy

Dec. 04, 2012 Rise Set
Actual Time 6:29 AM CST 4:39 PM CST
Civil Twilight 6:02 AM CST 5:06 PM CST
Nautical Twilight 5:32 AM CST 5:36 PM CST
Astronomical Twilight 5:02 AM CST 6:06 PM CST
Moon 10:12 PM CST (12/4) 10:35 AM CST (12/4)
Length of Visible Light 11h 03m
Length of Day
10h 10m
Waning Gibbous, 69% of the Moon is Illuminated
Dec 4
Waning Gibbous
Dec 6
Last Quarter
Dec 13
New
Dec 19
First Quarter
Dec 28
Full

Hourly Weather History & Observations

Time (CST) Temp. Dew Point Humidity Pressure Visibility Wind Dir Wind Speed Gust Speed Precip Events Conditions
12:53 AM 46.9 °F 45.0 °F 93% 30.23 in 10.0 mi Calm Calm - N/A   Clear
1:53 AM 46.0 °F 44.1 °F 93% 30.23 in 10.0 mi Calm Calm - N/A   Clear
2:53 AM 44.1 °F 42.1 °F 93% 30.24 in 10.0 mi Calm Calm - N/A   Clear
3:53 AM 45.0 °F 43.0 °F 93% 30.23 in 10.0 mi Calm Calm - N/A   Clear
4:53 AM 43.0 °F 41.0 °F 93% 30.25 in 10.0 mi Calm Calm - N/A   Clear
5:53 AM 45.0 °F 42.1 °F 90% 30.27 in 10.0 mi Calm Calm - N/A   Clear
6:53 AM 45.0 °F 42.1 °F 90% 30.29 in 10.0 mi Calm Calm - N/A   Clear
7:53 AM 52.0 °F 48.9 °F 89% 30.30 in 10.0 mi Calm Calm - N/A   Clear
8:53 AM 63.0 °F 55.0 °F 75% 30.31 in 10.0 mi Calm Calm - N/A   Mostly Cloudy
9:53 AM 69.1 °F 57.9 °F 68% 30.31 in 10.0 mi South 4.6 mph - N/A   Clear
10:53 AM 73.0 °F 57.9 °F 59% 30.28 in 10.0 mi SSW 6.9 mph - N/A   Clear
11:53 AM 75.9 °F 57.0 °F 52% 30.26 in 10.0 mi SSW 10.4 mph 18.4 mph N/A   Overcast
12:53 PM 73.9 °F 55.0 °F 52% 30.23 in 10.0 mi SSW 6.9 mph - N/A   Mostly Cloudy
1:53 PM 78.1 °F 52.0 °F 40% 30.21 in 10.0 mi WSW 9.2 mph - N/A   Mostly Cloudy
2:53 PM 78.1 °F 51.1 °F 39% 30.21 in 10.0 mi SSW 6.9 mph - N/A   Mostly Cloudy
3:53 PM 73.0 °F 50.0 °F 44% 30.21 in 10.0 mi South 4.6 mph - N/A   Clear
4:53 PM 66.0 °F 53.1 °F 63% 30.21 in 10.0 mi Calm Calm - N/A   Clear
5:53 PM 61.0 °F 53.1 °F 75% 30.21 in 10.0 mi Calm Calm - N/A   Clear
6:53 PM 61.0 °F 54.0 °F 78% 30.22 in 10.0 mi Calm Calm - N/A   Clear
7:53 PM 60.1 °F 54.0 °F 80% 30.23 in 10.0 mi Calm Calm - N/A   Clear
8:53 PM 60.1 °F 53.1 °F 78% 30.22 in 10.0 mi Calm Calm - N/A   Partly Cloudy
9:53 PM 55.9 °F 53.1 °F 90% 30.22 in 10.0 mi Calm Calm - N/A   Clear
10:53 PM 52.0 °F 51.1 °F 97% 30.22 in 10.0 mi Calm Calm - N/A   Clear
11:53 PM 52.0 °F 50.0 °F 93% 30.20 in 10.0 mi Calm Calm - N/A   Partly Cloudy